TimeCDT,TemperatureF,Dew PointF,Humidity,Sea Level PressureIn,VisibilityMPH,Wind Direction,Wind SpeedMPH,Gust SpeedMPH,PrecipitationIn,Events,Conditions,WindDirDegrees,DateUTC
12:48 AM,57.2,53.6,88,29.91,7.0,ESE,20.7,-,0.12,Rain,Light Rain,120,2013-05-08 05:48:00
12:53 AM,57.9,54.0,87,29.90,10.0,ESE,19.6,-,0.12,Thunderstorm,Overcast,120,2013-05-08 05:53:00
1:21 AM,57.2,53.6,88,29.90,10.0,SE,18.4,-,N/A,,Scattered Clouds,130,2013-05-08 06:21:00
1:53 AM,57.0,53.1,87,29.87,10.0,SE,18.4,-,N/A,,Clear,140,2013-05-08 06:53:00
2:53 AM,57.0,52.0,83,29.84,10.0,SE,23.0,28.8,N/A,,Clear,140,2013-05-08 07:53:00
3:53 AM,57.0,52.0,83,29.85,10.0,SE,16.1,-,N/A,,Clear,130,2013-05-08 08:53:00
4:53 AM,55.9,53.1,90,29.86,10.0,East,6.9,-,N/A,,Clear,100,2013-05-08 09:53:00
5:53 AM,54.0,51.1,90,29.86,10.0,SE,4.6,-,N/A,,Clear,140,2013-05-08 10:53:00
6:53 AM,54.0,51.1,90,29.86,10.0,ESE,10.4,-,N/A,,Clear,110,2013-05-08 11:53:00
7:53 AM,55.9,53.1,90,29.89,10.0,ENE,3.5,-,N/A,,Clear,70,2013-05-08 12:53:00
8:53 AM,60.1,55.9,86,29.87,10.0,SE,12.7,20.7,N/A,,Clear,140,2013-05-08 13:53:00
9:53 AM,63.0,55.9,78,29.88,10.0,SSE,16.1,-,N/A,,Clear,160,2013-05-08 14:53:00
10:53 AM,68.0,57.0,68,29.86,10.0,South,12.7,-,N/A,,Clear,170,2013-05-08 15:53:00
11:53 AM,72.0,55.0,55,29.87,10.0,SSW,10.4,-,N/A,,Clear,210,2013-05-08 16:53:00
12:53 PM,73.0,57.0,57,29.86,10.0,South,13.8,-,N/A,,Clear,190,2013-05-08 17:53:00
1:53 PM,73.0,57.0,57,29.85,10.0,South,10.4,-,N/A,,Clear,190,2013-05-08 18:53:00
2:53 PM,73.9,57.9,57,29.84,10.0,Variable,3.5,-,N/A,,Partly Cloudy,0,2013-05-08 19:53:00
3:53 PM,75.0,57.9,55,29.81,10.0,SE,5.8,-,N/A,,Clear,130,2013-05-08 20:53:00
4:53 PM,75.9,60.1,58,29.81,10.0,SE,11.5,-,N/A,,Scattered Clouds,140,2013-05-08 21:53:00
5:53 PM,75.9,57.0,52,29.81,10.0,SE,10.4,-,N/A,,Partly Cloudy,140,2013-05-08 22:53:00
6:53 PM,73.0,57.9,59,29.81,10.0,SE,12.7,-,N/A,,Scattered Clouds,140,2013-05-08 23:53:00
7:35 PM,71.6,60.8,69,29.79,10.0,ESE,9.2,-,N/A,Thunderstorm,Mostly Cloudy,110,2013-05-09 00:35:00
7:50 PM,69.8,60.8,73,29.80,10.0,ESE,8.1,-,N/A,,Partly Cloudy,110,2013-05-09 00:50:00
7:53 PM,71.1,59.0,66,29.77,10.0,East,6.9,-,N/A,,Partly Cloudy,90,2013-05-09 00:53:00
8:23 PM,69.8,60.8,73,29.83,10.0,East,9.2,-,N/A,Thunderstorm,Scattered Clouds,90,2013-05-09 01:23:00
8:53 PM,66.0,60.1,81,29.81,10.0,NNE,5.8,-,0.00,Rain-Thunderstorm,Light Rain,20,2013-05-09 01:53:00
9:19 PM,66.2,48.2,52,29.87,2.0,ENE,18.4,29.9,0.23,Rain,Heavy Rain,70,2013-05-09 02:19:00
9:53 PM,60.1,52.0,75,29.91,7.0,SW,9.2,-,0.43,Rain,Light Rain,230,2013-05-09 02:53:00
10:34 PM,57.2,51.8,82,29.98,8.0,NNW,16.1,19.6,0.18,Rain,Rain,330,2013-05-09 03:34:00
10:53 PM,57.0,51.1,81,29.97,7.0,WNW,12.7,25.3,0.22,Rain-Thunderstorm,Thunderstorms and Rain,290,2013-05-09 03:53:00
11:19 PM,55.4,51.8,88,29.97,7.0,NNW,9.2,-,0.05,Rain-Thunderstorm,Heavy Thunderstorms and Rain,330,2013-05-09 04:19:00
11:35 PM,55.4,51.8,88,29.90,10.0,North,20.7,-,0.07,Rain,Light Rain,10,2013-05-09 04:35:00
11:53 PM,55.0,52.0,89,29.87,10.0,NNW,16.1,-,0.08,Rain,Light Rain,340,2013-05-09 04:53:00